Regional Weather Roundup
Issued by NWS Little Rock, AR

Home | Current Version | Previous Version | Graphics & Text | Print | Product List | Glossary On
Versions: 1 2 3 4 5 6 7 8 9 10 11 12 13 14 15 16 17 18 19 20 21 22 23 24 25 26 27
000
ASUS44 KLZK 020805
RWRLZK

WEATHER ROUNDUP FOR ARKANSAS
NATIONAL WEATHER SERVICE LITTLE ROCK AR
300 AM CDT MON MAY 02 2016

NOTE: "FAIR" INDICATES FEW OR NO CLOUDS BELOW 12,000 FEET WITH NO
SIGNIFICANT WEATHER AND/OR OBSTRUCTIONS TO VISIBILITY.

ARZ001-003-010-029-020900-
NORTHWEST ARKANSAS

CITY           SKY/WX    TMP DP  RH WIND       PRES   REMARKS
FAYETTEVILLE   RAIN      52  49  89 CALM      30.10S
FORT SMITH     CLOUDY    58  47  66 W7        30.10R
HARRISON       PTCLDY    52  46  80 NW3       30.07F
BENTONVILLE    CLOUDY   N/A N/A N/A CALM      30.10R
ROGERS         CLOUDY    52  50  93 W3        30.10F
SILOAM SPGS    MOCLDY    52  45  76 CALM      30.10F
HIGHFILL       CLOUDY    52  51  97 CALM      30.09F
$$

ARZ004-005-016-020900-
NORTH CENTRAL ARKANSAS

CITY           SKY/WX    TMP DP  RH WIND       PRES   REMARKS
BATESVILLE     MOCLDY    55  46  71 NW6       30.04S
FLIPPIN        CLOUDY   N/A N/A N/A CALM      30.04S
MTN HOME       CLOUDY    52  47  83 NW3       30.05F
$$

ARZ040-041-020900-
WEST CENTRAL ARKANSAS

CITY           SKY/WX    TMP DP  RH WIND       PRES   REMARKS
MENA           MOCLDY    61  46  59 NW10      30.05F
MOUNT IDA      CLOUDY    58  48  69 CALM      29.99F
$$

ARZ009-017-025-026-028-020900-
NORTHEAST ARKANSAS

CITY           SKY/WX    TMP DP  RH WIND       PRES   REMARKS
CORNING          N/A     57  48  72 N8        30.03R
JONESBORO      MOCLDY    62  49  62 N6        30.00R
NEWPORT        CLOUDY    60  51  72 NW12      30.02S
WALNUT RIDGE   CLEAR     57  46  67 NW9       30.01S
BLYTHEVILLE    PTCLDY    61  54  77 N13       29.99S
$$

ARZ022-023-033-042-044-020900-
CENTRAL ARKANSAS

CITY           SKY/WX    TMP DP  RH WIND       PRES   REMARKS
LITTLE ROCK    MOCLDY    63  49  60 N12       30.01S
N LITTLE ROCK    N/A     60  49  68 N9        30.00S
JACKSONVILLE   MOCLDY    61  50  68 NW3       30.01S
SEARCY         MOCLDY    61  49  64 N7        30.02S
HOT SPRINGS    CLOUDY    63  49  60 CALM      29.99F
RUSSELLVILLE   CLOUDY    58  50  75 NW8       30.03F
$$

ARZ036-020900-
EAST ARKANSAS

CITY           SKY/WX    TMP DP  RH WIND       PRES   REMARKS
WEST MEMPHIS   CLOUDY    66  55  67 N10       29.95S
$$

ARZ050-053-066-070-073-020900-
SOUTHWEST ARKANSAS

CITY           SKY/WX    TMP DP  RH WIND       PRES   REMARKS
ARKADELPHIA    CLOUDY    66  58  75 N9        29.96F
CAMDEN         CLOUDY    64  54  68 N5        29.95F
TEXARKANA      CLOUDY    63  50  62 N10G18    29.97F
EL DORADO      LGT RAIN  65  62  90 N8        29.93F
DE QUEEN       CLOUDY    60  51  72 N5        29.99F
$$

ARZ056-057-069-020900-
SOUTHEAST ARKANSAS

CITY           SKY/WX    TMP DP  RH WIND       PRES   REMARKS
PINE BLUFF     CLOUDY    66  54  65 N20G31    29.97R
STUTTGART      CLOUDY    64  52  63 N15G21    29.98R
MONTICELLO     CLOUDY    69  64  84 VRB3      29.95R

$$






USA.gov is the U.S. government's official web portal to all federal, state and local government web resources and services.